This is the latest recevied weather packets stored in our database for station/object AJ5AG. If no packets are shown the sender has not sent any weather packets the latest 10 day(s).
| Time | Temp. | Humidity | Pressure | Rain* | Wind** | Luminosity | Snow |
|---|---|---|---|---|---|---|---|
| 1777922202 | 28.33° C | 48% | 1016.1 hPa | 0 mm | - | 868 W/m² | - |
| 1777921898 | 28.33° C | 50% | 1016.4 hPa | 0 mm | - | 844 W/m² | - |
| 1777921594 | 28.33° C | 46% | 1016.3 hPa | 0 mm | - | 862 W/m² | - |
| 1777921291 | 28.33° C | 48% | 1016.3 hPa | 0 mm | - | 846 W/m² | - |
| 1777920987 | 28.33° C | 46% | 1016.5 hPa | 0 mm | - | 834 W/m² | - |
| 1777920684 | 27.78° C | 48% | 1016.5 hPa | 0 mm | - | 841 W/m² | - |
| 1777920380 | 27.78° C | 47% | 1016.6 hPa | 0 mm | - | 851 W/m² | - |
| 1777920075 | 27.78° C | 49% | 1016.6 hPa | 0 mm | - | 831 W/m² | - |
| 1777919773 | 27.78° C | 50% | 1016.4 hPa | 0 mm | - | 869 W/m² | - |
| 1777919471 | 27.22° C | 52% | 1016.6 hPa | 0 mm | - | 853 W/m² | - |
| 1777919167 | 27.78° C | 48% | 1016.7 hPa | 0 mm | - | 839 W/m² | - |
| 1777918865 | 27.78° C | 48% | 1016.7 hPa | 0 mm | - | 836 W/m² | - |
| 1777918561 | 27.78° C | 50% | 1016.7 hPa | 0 mm | - | 783 W/m² | - |
| 1777918260 | 27.78° C | 50% | 1017 hPa | 0 mm | - | 844 W/m² | - |
| 1777917958 | 27.22° C | 49% | 1017.1 hPa | 0 mm | - | 839 W/m² | - |
| 1777917657 | 27.22° C | 50% | 1017.1 hPa | 0 mm | - | 831 W/m² | - |
| 1777917354 | 27.22° C | 50% | 1017 hPa | 0 mm | - | 842 W/m² | - |
| 1777917050 | 27.22° C | 49% | 1016.9 hPa | 0 mm | - | 835 W/m² | - |
| 1777916749 | 26.67° C | 51% | 1017 hPa | 0 mm | - | 824 W/m² | - |
| 1777916445 | 26.67° C | 49% | 1017.3 hPa | 0 mm | - | 806 W/m² | - |
| 1777916142 | 26.67° C | 51% | 1017.5 hPa | 0 mm | - | 802 W/m² | - |
| 1777915839 | 26.67° C | 51% | 1017.5 hPa | 0 mm | - | 814 W/m² | - |
| 1777915535 | 26.11° C | 52% | 1017.5 hPa | 0 mm | - | 806 W/m² | - |
| 1777915232 | 26.11° C | 51% | 1017.5 hPa | 0 mm | - | 809 W/m² | - |
| 1777914929 | 26.11° C | 51% | 1017.6 hPa | 0 mm | - | 770 W/m² | - |
* Rain latest hour (hover to see other rain measurements)
** Current wind speed in m/s (hover to see current wind gust speed)